Regional Weather Roundup
Issued by NWS Bismarck, ND

Home | Current Version | Previous Version | Text Only | Print | Product List | Glossary On
Versions: 1 2 3 4 5 6 7 8 9 10 11 12 13 14 15 16 17 18 19 20 21 22 23 24 25 26 27 28 29 30 31 32 33 34 35 36 37 38 39 40 41 42 43 44 45 46 47 48 49 50
000
ASUS43 KBIS 081110
RWRBIS

NWR BROADCAST TEXT
NATIONAL WEATHER SERVICE BISMARCK ND
500 AM CST THU DEC 08 2016

NOTE: "FAIR" INDICATES FEW OR NO CLOUDS BELOW 12,000 FEET WITH NO
SIGNIFICANT WEATHER AND/OR OBSTRUCTIONS TO VISIBILITY.


CITY           SKY/WX    TMP DP  RH WIND       PRES   REMARKS
WILLISTON      CLOUDY     0  -6  76 W9        30.63S WCI -15
MINOT          LGT SNOW   4  -1  80 NW23      30.54R WCI -18
MINOT AFB      CLOUDY     2  -3  79 NW20      30.53R WCI -19
BISMARCK       CLOUDY     4  -1  80 NW21G29   30.55S WCI -17
DICKINSON      PTCLDY    -7 -12  79 NW16      30.52R WCI -29
GARRISON         N/A      1  -4  79 NW29G36   30.52R WCI -24
HETTINGER ARPT CLEAR     -5 -11  75 NW16      30.53F WCI -27
JAMESTOWN      CLOUDY     5   1  83 NW26      30.44R WCI -18
CARRINGTON     CLOUDY     5   1  85 NW29G35   30.47R FOG     WCI -19
HAZEN          CLOUDY     1  -4  78 W16       30.59S HAZE    WCI -18
RUGBY            N/A      0  -2  92 NW20      30.49R WCI -22
STANLEY        FAIR      -4  -8  84 NW14      30.54S WCI -24
TIOGA          FLURRIES   0  -2  92 W14       30.56S WCI -19
WATFORD CITY   CLOUDY    -2  -9  71 W8        30.61S WCI -17
$$

CITY           SKY/WX    TMP DP  RH WIND       PRES   REMARKS
GRAND FORKS    MIX PCPN  17  11  77 NW23      30.38R WCI  -1
GRAND FORKS AF MIX PCPN  15   9  76 NW18      30.39R WCI  -1
DEVILS LAKE    FLURRIES  10   6  84 NW18      30.43R WCI  -8
FARGO          MIX PCPN  17  11  77 NW21G32   30.37R WCI   0
CANDO          CLOUDY    10   5  79 NW17G23   30.47R WCI  -7
CAVALIER       LGT SNOW  14  10  85 NW22G30   30.40R WCI  -4
GRAFTON        FLURRIES  16  12  86 NW20G29   30.41R WCI  -1
GWINNER        CLOUDY    10   9  92 NW20      30.41R WCI  -8
LANGDON        LGT SNOW  12   9  85 NW21G28   30.38R WCI  -6
ROLLA          CLOUDY     5   1  85 NW21G29   30.43R WCI -16
WALHALLA         N/A     14  14 100 NW23      30.42R FOG     WCI  -5
$$

CITY           SKY/WX    TMP DP  RH WIND       PRES   REMARKS
ABERDEEN       CLOUDY     9   2  73 NW20G30   30.48S WCI -10
MOBRIDGE       CLOUDY     6  -3  66 NW18G25   30.52R WCI -13
BUFFALO          N/A     -5 -10  79 NW12      30.44S WCI -23
RAPID CITY     CLEAR     -3  -9  75 NW8       30.52S WCI -18
GLASGOW        CLOUDY    -2  -8  76 NW9       30.64F WCI -18
SIDNEY         FLURRIES  -5  -9  83 CALM      30.65S
WOLF POINT     CLOUDY    -2  -8  76 W7        30.67F WCI -15
GLENDIVE       CLOUDY    -2  -7  79 NW10      30.61F WCI -19
MILES CITY     CLEAR     -6 -12  75 W6        30.62S WCI -19
BAKER          PTCLDY    -5 -10  79 W13       30.54F WCI -24
$$

CITY           SKY/WX    TMP DP  RH WIND       PRES   REMARKS
BILLINGS       PTCLDY    -2  -7  79 NE3       30.50F
GREAT FALLS    CLOUDY    -3  -8  79 E7        30.49F WCI -16
REGINA         PTCLDY    -8 -11  84 W10       30.61S WCI -26
ESTEVAN        CRYSTALS  -9 -13  84 W10       30.57R WCI -28
$$





USA.gov is the U.S. government's official web portal to all federal, state and local government web resources and services.